CW5834 Weather Reports


time (UTC)temp
C
wind
direction
speed
KPH
gust
KPH
rain 1hr
cm
rain 24hr
cm
rain mn
cm
humidity
%
barometer
mb
20260903050017 22 0.0 3.2 0.00 0.00 0.00 92 1020.4
20260903045015 22 0.0 3.2 0.00 0.00 0.00 91 1020.5
20260903044037 22 0.0 1.6 0.00 0.00 0.00 92 1020.5
20260903043017 22 0.0 1.6 0.00 0.00 0.00 92 1020.5
20260903042021 22 0.0 3.2 0.00 0.00 0.00 92 1020.5
20260903041017 22 0.0 3.2 0.00 0.00 0.00 91 1020.5
20260903040017 22 0.0 0.0 0.00 0.00 0.00 91 1020.4
20260903035016 22 0.0 3.2 0.00 0.00 0.00 91 1020.5
20260903034016 22 0.0 0.0 0.00 0.00 0.00 91 1020.5
20260903033016 23 0.0 0.0 0.00 0.00 0.00 91 1020.3
20260903032056 23 315 1.6 3.2 0.00 0.00 0.00 91 1020.5
20260903031016 23 0.0 0.0 0.00 0.00 0.00 90 1020.4
20260903030016 23 315 1.6 1.6 0.00 0.00 0.00 90 1020.4
20260903025016 23 0.0 3.2 0.00 0.00 0.00 90 1020.4
20260903024017 23 0.0 1.6 0.00 0.00 0.00 90 1020.4
20260903023036 23 0.0 3.2 0.00 0.00 0.00 90 1020.2
20260903022016 23 0.0 1.6 0.00 0.00 0.00 90 1020.4
20260903021016 23 0.0 3.2 0.00 0.00 0.00 90 1020.5
20260903020016 23 0.0 1.6 0.00 0.00 0.00 90 1020.2
20260903015016 24 0.0 1.6 0.00 0.00 0.00 89 1020.1
20260903014016 24 0.0 3.2 0.00 0.00 0.00 89 1020.1
20260903013016 24 0.0 0.0 0.00 0.00 0.00 88 1020.0
20260903012016 25 0.0 0.0 0.00 0.00 0.00 88 1019.9
20260903011016 25 0.0 0.0 0.00 0.00 0.00 87 1019.7
20260903010019 25 0.0 3.2 0.00 0.00 0.00 86 1019.5
20260903005015 25 0.0 3.2 0.00 0.00 0.00 85 1019.4
20260903004016 25 0.0 1.6 0.00 0.00 0.00 83 1019.4
20260903003015 26 0.0 0.0 0.00 0.00 0.00 82 1019.1
20260903002016 26 0.0 3.2 0.00 0.00 0.00 81 1019.1
20260903001016 26 0 1.6 1.6 0.00 0.00 0.00 80 1019.1
20260903000056 27 0.0 3.2 0.00 0.00 0.00 78 1019.2
20260902235015 27 0.0 1.6 0.00 0.00 0.00 76 1019.2
20260902234016 28 0.0 0.0 0.00 0.00 0.00 74 1019.3
20260902233056 28 0.0 3.2 0.00 0.00 0.00 75 1019.4
20260902232016 29 338 1.6 1.6 0.00 0.00 0.00 73 1019.6
20260902231015 30 315 1.6 1.6 0.00 0.00 0.00 70 1019.6
20260902230015 31 315 1.6 1.6 0.00 0.00 0.00 68 1019.7
20260902225015 31 315 1.6 1.6 0.00 0.00 0.00 66 1019.6
20260902224015 31 315 1.6 1.6 0.00 0.00 0.00 67 1019.5
20260902223015 32 315 1.6 1.6 0.00 0.00 0.00 63 1019.8
20260902222017 33 315 1.6 1.6 0.00 0.00 0.00 61 1019.8
20260902221015 33 315 1.6 3.2 0.00 0.00 0.00 56 1020.0
20260902220017 34 338 1.6 1.6 0.00 0.00 0.00 55 1020.1
20260902215018 34 0 1.6 3.2 0.00 0.00 0.00 54 1020.0
20260902214017 34 23 1.6 3.2 0.00 0.00 0.00 49 1020.0
20260902213018 34 0.0 1.6 0.00 0.00 0.00 52 1020.0
20260902212037 34 0 1.6 4.8 0.00 0.00 0.00 49 1020.1
20260902211037 34 293 1.6 3.2 0.00 0.00 0.00 54 1020.3
20260902210037 34 315 1.6 4.8 0.00 0.00 0.00 49 1020.1
20260902205017 34 0 3.2 4.8 0.00 0.00 0.00 49 1020.1
20260902204017 33 45 3.2 4.8 0.00 0.00 0.00 53 1020.3
20260902203017 34 293 1.6 3.2 0.00 0.00 0.00 49 1020.4
20260902202017 34 293 1.6 3.2 0.00 0.00 0.00 48 1020.6
20260902201017 34 0.0 3.2 0.00 0.00 0.00 49 1020.6
20260902200017 34 0 1.6 4.8 0.00 0.00 0.00 47 1020.8
20260902195017 33 338 3.2 8.0 0.00 0.00 0.00 49 1020.8
20260902194017 33 225 1.6 4.8 0.00 0.00 0.00 47 1021.0
20260902193057 33 0 1.6 6.4 0.00 0.00 0.00 53 1021.2
20260902192017 33 45 1.6 3.2 0.00 0.00 0.00 48 1021.2
20260902191017 33 45 3.2 6.4 0.00 0.00 0.00 51 1021.4
20260902190017 33 0 3.2 6.4 0.00 0.00 0.00 54 1021.4
20260902185017 33 293 1.6 6.4 0.00 0.00 0.00 53 1021.5
20260902184017 33 315 4.8 6.4 0.00 0.00 0.00 55 1021.6
20260902183017 33 338 4.8 8.0 0.00 0.00 0.00 53 1021.7
20260902182017 33 225 1.6 6.4 0.00 0.00 0.00 55 1021.7
20260902181037 33 315 4.8 8.0 0.00 0.00 0.00 58 1021.7
20260902180017 32 23 3.2 8.0 0.00 0.00 0.00 55 1021.8
20260902175021 32 23 3.2 4.8 0.00 0.00 0.00 56 1021.9
20260902174017 32 113 3.2 6.4 0.00 0.00 0.00 58 1021.9
20260902173037 32 0 1.6 4.8 0.00 0.00 0.00 55 1022.0
20260902172017 32 23 3.2 8.0 0.00 0.00 0.00 58 1022.2
20260902171017 32 338 3.2 8.0 0.00 0.00 0.00 64 1022.4
20260902170037 31 23 1.6 4.8 0.00 0.00 0.00 62 1022.5
20260902165017 32 315 1.6 4.8 0.00 0.00 0.00 61 1022.6
20260902164037 32 293 4.8 6.4 0.00 0.00 0.00 60 1022.7
20260902163017 32 315 1.6 3.2 0.00 0.00 0.00 61 1022.8
20260902162017 31 0.0 3.2 0.00 0.00 0.00 63 1023.0
20260902161017 31 0 1.6 4.8 0.00 0.00 0.00 64 1023.1
20260902160037 31 203 1.6 4.8 0.00 0.00 0.00 62 1023.0
20260902155016 31 45 1.6 4.8 0.00 0.00 0.00 67 1023.0
20260902154057 30 180 1.6 4.8 0.00 0.00 0.00 64 1023.0
20260902153017 30 203 1.6 6.4 0.00 0.00 0.00 63 1023.0
20260902152017 31 158 1.6 4.8 0.00 0.00 0.00 66 1023.0
20260902151037 30 90 1.6 3.2 0.00 0.00 0.00 72 1022.9
20260902150016 30 90 1.6 3.2 0.00 0.00 0.00 71 1022.8
20260902145017 29 248 1.6 3.2 0.00 0.00 0.00 73 1022.8
20260902144016 29 338 1.6 3.2 0.00 0.00 0.00 75 1022.7
20260902143016 28 0 1.6 3.2 0.00 0.00 0.00 75 1022.8
20260902142036 28 0.0 3.2 0.00 0.00 0.00 76 1022.6
20260902141016 28 45 1.6 3.2 0.00 0.00 0.00 79 1022.6
20260902140016 27 90 1.6 3.2 0.00 0.00 0.00 82 1022.6
20260902135016 26 0 1.6 3.2 0.00 0.00 0.00 83 1022.6
20260902134016 26 315 1.6 4.8 0.00 0.00 0.00 84 1022.6
20260902133016 26 135 1.6 3.2 0.00 0.00 0.00 84 1022.6
20260902132022 25 315 1.6 3.2 0.00 0.00 0.00 88 1022.7
20260902131016 25 0.0 3.2 0.00 0.00 0.00 88 1022.8
20260902130016 23 0.0 3.2 0.00 0.00 0.00 91 1022.6
20260902125016 23 113 1.6 3.2 0.00 0.00 0.00 92 1022.4
20260902124016 22 0.0 3.2 0.00 0.00 0.00 93 1022.5
20260902123016 22 0.0 3.2 0.00 0.00 0.00 94 1022.6
20260902122016 22 0.0 3.2 0.00 0.00 0.00 94 1022.5
20260902121016 21 0.0 3.2 0.00 0.00 0.00 96 1022.3
20260902120016 21 0.0 3.2 0.00 0.00 0.00 96 1022.3
20260902115036 20 0.0 3.2 0.00 0.00 0.00 95 1022.1
20260902114016 20 0.0 3.2 0.00 0.00 0.00 95 1022.1
20260902113016 20 0.0 1.6 0.00 0.00 0.00 95 1022.1
20260902112016 20 0.0 0.0 0.00 0.00 0.00 95 1021.8
20260902111016 20 0.0 3.2 0.00 0.00 0.00 95 1021.7
20260902110016 20 0.0 1.6 0.00 0.00 0.00 95 1021.7
20260902105036 20 0.0 3.2 0.00 0.00 0.00 95 1021.6
20260902104016 20 0.0 3.2 0.00 0.00 0.00 95 1021.6
20260902103016 20 0.0 0.0 0.00 0.00 0.00 95 1021.6
20260902102016 20 0.0 1.6 0.00 0.00 0.00 95 1021.5
20260902101016 20 0.0 3.2 0.00 0.00 0.00 94 1021.5
20260902100016 20 0.0 1.6 0.00 0.00 0.00 95 1021.3
20260902095016 21 0.0 3.2 0.00 0.00 0.00 95 1021.3
20260902094015 21 0.0 3.2 0.00 0.00 0.00 95 1021.2
20260902093016 21 0.0 1.6 0.00 0.00 0.00 95 1021.4
20260902092015 21 0.0 0.0 0.00 0.00 0.00 95 1021.2
20260902091016 21 0 1.6 3.2 0.00 0.00 0.00 95 1021.1
20260902090016 21 0.0 1.6 0.00 0.00 0.00 95 1021.2
20260902085015 21 0.0 1.6 0.00 0.00 0.00 94 1021.1
20260902084015 21 0 1.6 1.6 0.00 0.00 0.00 94 1021.0
20260902083015 21 0.0 3.2 0.00 0.00 0.00 94 1021.2
20260902082015 21 0.0 3.2 0.00 0.00 0.00 94 1021.1
20260902081016 21 0.0 3.2 0.00 0.00 0.00 94 1021.1
20260902080016 21 0.0 3.2 0.00 0.00 0.00 94 1021.1
20260902075036 21 0 1.6 1.6 0.00 0.00 0.00 94 1021.1
20260902074036 21 0.0 3.2 0.00 0.00 0.00 94 1021.0
20260902073015 21 23 1.6 1.6 0.00 0.00 0.00 94 1020.9
20260902072015 21 0.0 3.2 0.00 0.00 0.00 94 1021.1
20260902071015 21 0.0 3.2 0.00 0.00 0.00 93 1021.0
20260902070016 21 0.0 3.2 0.00 0.00 0.00 94 1020.9
20260902065017 21 0.0 1.6 0.00 0.00 0.00 93 1020.9
20260902064037 21 0.0 1.6 0.00 0.00 0.00 94 1020.9
20260902063037 21 0.0 3.2 0.00 0.00 0.00 93 1021.0
20260902062017 21 23 1.6 1.6 0.00 0.00 0.00 93 1021.1
20260902061037 21 0.0 0.0 0.00 0.00 0.00 93 1021.1
20260902060017 21 0.0 3.2 0.00 0.00 0.00 93 1021.1
20260902055017 21 0.0 0.0 0.00 0.00 0.00 93 1021.1
20260902054037 21 0.0 3.2 0.00 0.00 0.00 93 1021.2
20260902053017 21 0.0 3.2 0.00 0.00 0.00 93 1021.1
20260902052017 21 0.0 0.0 0.00 0.00 0.00 93 1021.1
20260902051017 21 0.0 0.0 0.00 0.00 0.00 93 1021.2